{"data":{"norad_id":57112,"epoch":"2026-05-25T04:58:40.962720Z","epoch_age_seconds":54153,"freshness":"FRESH","line1":"1 57112U 23090M   26145.20741855  .00001970  00000+0  81127-4 0  9999","line2":"2 57112  43.0017 209.5169 0001156 277.2922  82.7798 15.27565531162032","mean_motion":15.27565531,"eccentricity":0.0001156,"inclination_deg":43.0017,"raan_deg":209.5169,"arg_perigee_deg":277.2922,"mean_anomaly_deg":82.7798,"bstar":8.1127e-5,"rev_number":16203,"period_min":94.267641602081,"perigee_km":482.29926365167,"apogee_km":483.88557989398,"semimajor_km":6861.2294217728,"source":"CELESTRAK","updated_at":"2026-05-25T13:38:18.241581Z"}}